This is the latest recevied weather packets stored in our database for station/object LY3FF-10. If no packets are shown the sender has not sent any weather packets the latest 10 day(s).
| Time | Temp. | Humidity | Pressure | Rain* | Wind** | Luminosity | Snow |
|---|---|---|---|---|---|---|---|
| 1777780952 | 11.11° C | 43% | 994.7 hPa | - | - | - | - |
| 1777780227 | 10° C | 43% | 994.8 hPa | - | - | - | - |
| 1777779327 | 10.56° C | 43% | 994.9 hPa | - | - | - | - |
| 1777778547 | 10.56° C | 43% | 994.8 hPa | - | - | - | - |
| 1777777722 | 10.56° C | 43% | 994.9 hPa | - | - | - | - |
| 1777776882 | 10° C | 43% | 995 hPa | - | - | - | - |
| 1777776041 | 10° C | 43% | 995 hPa | - | - | - | - |
| 1777775187 | 8.89° C | 43% | 995 hPa | - | - | - | - |
| 1777774361 | 10° C | 43% | 995.1 hPa | - | - | - | - |
| 1777773627 | 10° C | 43% | 995.1 hPa | - | - | - | - |
| 1777772871 | 10° C | 42% | 995.1 hPa | - | - | - | - |
| 1777771987 | 10° C | 41% | 995.3 hPa | - | - | - | - |
| 1777771127 | 10.56° C | 40% | 995.4 hPa | - | - | - | - |
| 1777770247 | 9.44° C | 40% | 995.4 hPa | - | - | - | - |
| 1777769472 | 9.44° C | 39% | 995.4 hPa | - | - | - | - |
| 1777768752 | 10.56° C | 39% | 995.6 hPa | - | - | - | - |
| 1777767937 | 9.44° C | 38% | 995.6 hPa | - | - | - | - |
| 1777767217 | 10° C | 38% | 995.6 hPa | - | - | - | - |
| 1777766497 | 11.11° C | 37% | 995.6 hPa | - | - | - | - |
| 1777765602 | 11.11° C | 36% | 995.6 hPa | - | - | - | - |
| 1777764742 | 10.56° C | 35% | 995.7 hPa | - | - | - | - |
| 1777763902 | 11.11° C | 34% | 995.7 hPa | - | - | - | - |
| 1777763057 | 12.22° C | 33% | 995.8 hPa | - | - | - | - |
| 1777762257 | 12.22° C | 32% | 995.8 hPa | - | - | - | - |
| 1777761527 | 11.67° C | 32% | 995.9 hPa | - | - | - | - |
* Rain since midnight (hover to see other rain measurements)
** Current wind speed in m/s (hover to see current wind gust speed)